Weather History for NW Arkansas Airport, AR

Change the Weather History Date:

Friday, September 20, 2013

  Actual Average Record
Temperature  
Mean Temperature 64 °F -  
Max Temperature 70 °F - - ()
Min Temperature 55 °F - - ()
Degree Days  
Heating Degree Days 1    
Growing Degree Days 14 (Base 50)    
Moisture  
Dew Point 64 °F    
Average Humidity 91    
Maximum Humidity 100    
Minimum Humidity 57    
Precipitation  
Precipitation 1.61 in - - ()
Sea Level Pressure  
Sea Level Pressure 29.98 in    
Wind  
Wind Speed 6 mph (NNW)    
Max Wind Speed 16 mph    
Max Gust Speed 21 mph    
Visibility 7 miles    
Events Fog , Rain , Thunderstorm    
T = Trace of Precipitation, MM = Missing Value Source: NWS Daily Summary

Daily Weather History Graph

Daily Weather History Graph

Search for Another Location

Airport:

Trip Planner

Search our weather history database for the weather conditions in past years. The results will help you decide how hot, cold, wet, or windy it might be!

Date:

Astronomy

Sep. 20, 2013 Rise Set
Actual Time 7:03 AM CDT 7:16 PM CDT
Civil Twilight 6:38 AM CDT 7:42 PM CDT
Nautical Twilight 6:07 AM CDT 8:12 PM CDT
Astronomical Twilight 5:37 AM CDT 8:42 PM CDT
Moon 7:55 PM CDT (9/20) 8:15 AM CDT (9/20)
Length of Visible Light 13h 04m
Length of Day
12h 12m
Full, 98% of the Moon is Illuminated
Sep 20
Full
Sep 26
Last Quarter
Oct 4
New
Oct 11
First Quarter
Oct 18
Full

Hourly Weather History & Observations

Time (CDT) Temp. Dew Point Humidity Pressure Visibility Wind Dir Wind Speed Gust Speed Precip Events Conditions
12:15 AM 71.6 °F 66.2 °F 83% 29.98 in 9.0 mi Variable 6.9 mph 16.1 mph 0.01 in Rain , Thunderstorm Light Thunderstorms and Rain
12:27 AM 69.8 °F 66.2 °F 88% 30.00 in 1.8 mi NW 5.8 mph - 0.15 in Rain , Thunderstorm Heavy Thunderstorms and Rain
12:32 AM 68.0 °F 66.2 °F 94% 30.01 in 1.0 mi WSW 4.6 mph - 0.23 in Rain , Thunderstorm Heavy Thunderstorms and Rain
12:42 AM 66.2 °F 66.2 °F 100% 30.01 in 0.5 mi Calm Calm - 0.54 in Fog , Rain , Thunderstorm Heavy Thunderstorms and Rain
12:51 AM 66.2 °F 66.2 °F 100% 30.01 in 1.0 mi SSE 5.8 mph - 0.67 in Rain , Thunderstorm Heavy Thunderstorms and Rain
12:53 AM 66.9 °F 66.9 °F 100% 29.96 in 1.2 mi SSE 5.8 mph - 0.69 in Rain , Thunderstorm Heavy Thunderstorms and Rain
1:01 AM 66.2 °F 66.2 °F 100% 30.00 in 1.8 mi Calm Calm - 0.08 in Rain , Thunderstorm Heavy Thunderstorms and Rain
1:28 AM 66.2 °F 66.2 °F 100% 30.00 in 3.0 mi NE 4.6 mph - 0.32 in Rain , Thunderstorm Rain
1:48 AM 66.2 °F 66.2 °F 100% 30.02 in 6.0 mi SSE 4.6 mph - 0.37 in Rain Rain
1:53 AM 66.9 °F 66.0 °F 97% 29.97 in 5.0 mi South 5.8 mph - 0.39 in Rain Rain
2:12 AM 66.2 °F 66.2 °F 100% 30.02 in 2.0 mi SSE 4.6 mph - 0.12 in Rain Heavy Rain
2:16 AM 66.2 °F 66.2 °F 100% 30.02 in 3.0 mi SE 6.9 mph - 0.13 in Rain Rain
2:23 AM 66.2 °F 66.2 °F 100% 30.03 in 5.0 mi South 8.1 mph - 0.16 in Rain Rain
2:48 AM 66.2 °F 66.2 °F 100% 30.02 in 5.0 mi South 9.2 mph - 0.25 in Rain Rain
2:53 AM 66.0 °F 66.0 °F 100% 29.97 in 5.0 mi South 9.2 mph - 0.27 in Rain Rain
3:08 AM 66.2 °F 66.2 °F 100% 30.00 in 7.0 mi Calm Calm - 0.03 in Rain Light Rain
3:53 AM 66.0 °F 64.9 °F 96% 29.94 in 10.0 mi NW 4.6 mph - 0.06 in Rain Light Rain
4:53 AM 66.0 °F 64.9 °F 96% 29.95 in 10.0 mi SSW 3.5 mph - 0.01 in Rain Light Rain
5:53 AM 66.0 °F 66.0 °F 100% 29.94 in 4.0 mi Calm Calm - 0.06 in Rain Light Rain
6:24 AM 66.2 °F 66.2 °F 100% 29.98 in 5.0 mi Calm Calm - 0.04 in Rain Light Rain
6:53 AM 66.0 °F 66.0 °F 100% 29.94 in 4.0 mi Calm Calm - 0.07 in Rain Light Rain
7:53 AM 66.0 °F 66.0 °F 100% 29.95 in 4.0 mi South 3.5 mph - 0.03 in Rain Light Rain
8:53 AM 66.9 °F 66.0 °F 97% 29.95 in 7.0 mi Calm Calm - 0.02 in Rain Light Rain
9:17 AM 66.2 °F 66.2 °F 100% 29.99 in 10.0 mi WNW 3.5 mph - 0.01 in   Overcast
9:35 AM 68.0 °F 66.2 °F 94% 29.99 in 10.0 mi Variable 4.6 mph - 0.01 in Rain Light Rain
9:50 AM 68.0 °F 66.2 °F 94% 29.99 in 10.0 mi WNW 3.5 mph - 0.01 in Rain Light Rain
9:51 AM 68.0 °F 66.9 °F 96% 29.96 in 10.0 mi WNW 3.5 mph - 0.01 in Rain Light Rain
10:04 AM 68.0 °F 66.2 °F 94% 29.99 in 9.0 mi WNW 5.8 mph - 0.00 in Rain Light Rain
10:22 AM 68.0 °F 66.2 °F 94% 30.00 in 10.0 mi NNW 6.9 mph - 0.00 in Rain Light Rain
10:29 AM 68.0 °F 66.2 °F 94% 30.00 in 10.0 mi NNW 8.1 mph - 0.00 in   Overcast
10:48 AM 69.8 °F 66.2 °F 88% 30.00 in 10.0 mi NNW 12.7 mph - 0.00 in   Overcast
10:53 AM 68.0 °F 66.9 °F 96% 29.96 in 10.0 mi NNW 10.4 mph - 0.00 in   Overcast
11:22 AM 69.8 °F 66.2 °F 88% 30.00 in 10.0 mi North 11.5 mph - N/A   Overcast
11:39 AM 69.8 °F 66.2 °F 88% 29.99 in 10.0 mi North 12.7 mph - N/A   Overcast
11:53 AM 66.9 °F 64.9 °F 93% 29.97 in 9.0 mi North 16.1 mph - N/A   Overcast
12:53 PM 68.0 °F 64.9 °F 90% 29.98 in 9.0 mi North 11.5 mph - N/A   Overcast
1:11 PM 66.2 °F 64.4 °F 94% 30.01 in 4.0 mi North 13.8 mph - N/A   Overcast
1:30 PM 68.0 °F 64.4 °F 88% 30.00 in 10.0 mi North 12.7 mph - N/A   Overcast
1:53 PM 70.0 °F 62.1 °F 76% 29.96 in 10.0 mi North 11.5 mph - N/A   Scattered Clouds
2:18 PM 66.2 °F 60.8 °F 83% 29.98 in 10.0 mi North 13.8 mph 19.6 mph N/A   Mostly Cloudy
2:34 PM 69.8 °F 60.8 °F 73% 29.97 in 10.0 mi NNE 13.8 mph - N/A   Scattered Clouds
2:53 PM 68.0 °F 59.0 °F 73% 29.94 in 10.0 mi NNE 13.8 mph - N/A   Clear
3:53 PM 68.0 °F 57.9 °F 70% 29.95 in 10.0 mi NNE 13.8 mph - N/A   Clear
4:53 PM 69.1 °F 53.1 °F 57% 29.94 in 10.0 mi NNE 16.1 mph 20.7 mph N/A   Clear
5:53 PM 66.9 °F 55.0 °F 66% 29.94 in 10.0 mi North 9.2 mph - N/A   Clear
6:53 PM 64.9 °F 55.9 °F 73% 29.93 in 10.0 mi North 4.6 mph - N/A   Clear
7:53 PM 62.1 °F 55.9 °F 80% 29.95 in 10.0 mi Calm Calm - N/A   Clear
8:53 PM 61.0 °F 57.0 °F 87% 29.95 in 10.0 mi Calm Calm - N/A   Clear
9:53 PM 59.0 °F 55.0 °F 87% 29.96 in 10.0 mi North 6.9 mph - N/A   Clear
10:53 PM 57.9 °F 54.0 °F 87% 29.97 in 10.0 mi North 8.1 mph - N/A   Clear
11:53 PM 55.0 °F 52.0 °F 89% 29.97 in 10.0 mi North 5.8 mph - N/A   Clear